TimeEDT,TemperatureF,Dew PointF,Humidity,Sea Level PressureIn,VisibilityMPH,Wind Direction,Wind SpeedMPH,Gust SpeedMPH,PrecipitationIn,Events,Conditions,WindDirDegrees,DateUTC
12:58 AM,57.6,57.2,99,30.07,10.0,NNE,3.5,-,N/A,,Partly Cloudy,20,2013-10-16 04:58:00
1:33 AM,55.4,55.4,100,30.07,10.0,North,4.6,-,N/A,,Mostly Cloudy,350,2013-10-16 05:33:00
1:38 AM,57.2,55.4,94,30.07,10.0,North,4.6,-,N/A,,Mostly Cloudy,350,2013-10-16 05:38:00
1:48 AM,57.2,57.2,100,30.07,10.0,North,4.6,-,N/A,,Mostly Cloudy,360,2013-10-16 05:48:00
1:58 AM,57.6,57.2,99,30.07,10.0,North,3.5,-,N/A,,Overcast,360,2013-10-16 05:58:00
2:23 AM,60.8,59.0,94,30.05,10.0,ENE,8.1,-,N/A,,Overcast,70,2013-10-16 06:23:00
2:38 AM,60.8,60.8,100,30.05,10.0,ENE,5.8,-,N/A,,Overcast,60,2013-10-16 06:38:00
2:58 AM,60.4,60.1,99,30.05,10.0,ENE,5.8,-,N/A,,Overcast,70,2013-10-16 06:58:00
3:58 AM,60.8,60.4,99,30.06,10.0,NE,4.6,-,N/A,,Overcast,40,2013-10-16 07:58:00
4:18 AM,60.8,60.8,100,30.07,10.0,North,4.6,-,N/A,,Overcast,360,2013-10-16 08:18:00
4:58 AM,59.7,59.4,99,30.06,10.0,North,5.8,-,N/A,,Overcast,360,2013-10-16 08:58:00
5:08 AM,59.0,59.0,100,30.05,10.0,North,5.8,-,N/A,,Overcast,10,2013-10-16 09:08:00
5:18 AM,59.0,59.0,100,30.05,10.0,Variable,4.6,-,N/A,,Overcast,0,2013-10-16 09:18:00
5:28 AM,59.0,59.0,100,30.05,10.0,North,3.5,-,N/A,,Overcast,10,2013-10-16 09:28:00
5:33 AM,59.0,59.0,100,30.04,10.0,NNE,3.5,-,N/A,,Overcast,30,2013-10-16 09:33:00
5:43 AM,59.0,59.0,100,30.04,10.0,NNE,3.5,-,N/A,,Overcast,30,2013-10-16 09:43:00
5:48 AM,59.0,59.0,100,30.04,10.0,North,2.3,-,N/A,,Overcast,360,2013-10-16 09:48:00
5:53 AM,59.0,59.0,100,30.05,10.0,Variable,3.5,-,N/A,,Overcast,0,2013-10-16 09:53:00
5:58 AM,59.5,59.4,99,30.06,10.0,North,3.5,-,N/A,,Overcast,350,2013-10-16 09:58:00
6:08 AM,60.8,59.0,94,30.05,10.0,North,4.6,-,N/A,,Overcast,350,2013-10-16 10:08:00
6:33 AM,60.8,60.8,100,30.05,10.0,NE,3.5,-,N/A,,Overcast,40,2013-10-16 10:33:00
6:48 AM,60.8,60.8,100,30.05,10.0,NE,4.6,-,N/A,,Overcast,50,2013-10-16 10:48:00
6:58 AM,60.6,60.3,99,30.06,10.0,NE,6.9,-,N/A,,Overcast,50,2013-10-16 10:58:00
7:08 AM,60.8,60.8,100,30.05,10.0,NE,5.8,-,N/A,,Overcast,50,2013-10-16 11:08:00
7:13 AM,60.8,60.8,100,30.04,10.0,ENE,5.8,-,N/A,,Overcast,60,2013-10-16 11:13:00
7:48 AM,60.8,60.8,100,30.04,10.0,NE,2.3,-,N/A,,Overcast,50,2013-10-16 11:48:00
7:58 AM,60.6,60.3,99,30.05,10.0,ENE,3.5,-,N/A,,Overcast,60,2013-10-16 11:58:00
8:08 AM,60.8,60.8,100,30.04,10.0,ENE,4.6,-,N/A,,Overcast,70,2013-10-16 12:08:00
8:18 AM,60.8,60.8,100,30.05,10.0,NE,6.9,-,N/A,,Overcast,50,2013-10-16 12:18:00
8:28 AM,60.8,60.8,100,30.05,10.0,NE,6.9,-,N/A,,Overcast,40,2013-10-16 12:28:00
8:33 AM,60.8,60.8,100,30.05,7.0,NE,5.8,-,N/A,,Overcast,40,2013-10-16 12:33:00
8:38 AM,60.8,60.8,100,30.05,4.0,NE,4.6,-,N/A,,Overcast,40,2013-10-16 12:38:00
8:43 AM,60.8,60.8,100,30.05,2.5,NE,5.8,-,N/A,,Overcast,40,2013-10-16 12:43:00
8:48 AM,60.8,60.8,100,30.06,1.8,NNE,5.8,-,N/A,,Mostly Cloudy,20,2013-10-16 12:48:00
8:58 AM,60.3,59.9,99,30.07,2.0,NNE,4.6,-,N/A,,Overcast,20,2013-10-16 12:58:00
9:08 AM,60.8,60.8,100,30.05,4.0,Variable,4.6,-,N/A,,Overcast,0,2013-10-16 13:08:00
9:33 AM,60.8,60.8,100,30.05,8.0,ENE,4.6,-,N/A,,Overcast,70,2013-10-16 13:33:00
9:48 AM,60.8,60.8,100,30.05,9.0,East,4.6,-,N/A,,Overcast,80,2013-10-16 13:48:00
9:58 AM,61.2,60.8,99,30.06,8.0,NE,4.6,-,N/A,,Overcast,50,2013-10-16 13:58:00
10:13 AM,60.8,60.8,100,30.05,10.0,ENE,2.3,-,N/A,,Overcast,60,2013-10-16 14:13:00
10:23 AM,60.8,60.8,100,30.05,10.0,ENE,3.5,-,N/A,,Overcast,70,2013-10-16 14:23:00
10:43 AM,62.6,62.6,100,30.04,10.0,ENE,5.8,-,N/A,,Overcast,60,2013-10-16 14:43:00
10:58 AM,63.3,61.3,93,30.05,10.0,ENE,2.3,-,N/A,,Overcast,60,2013-10-16 14:58:00
11:08 AM,62.6,60.8,94,30.04,10.0,Variable,2.3,-,N/A,,Overcast,0,2013-10-16 15:08:00
11:23 AM,64.4,60.8,88,30.03,10.0,ENE,2.3,-,N/A,,Overcast,70,2013-10-16 15:23:00
11:58 AM,64.6,60.3,86,30.04,10.0,Variable,3.5,-,N/A,,Overcast,0,2013-10-16 15:58:00
12:48 PM,68.0,60.8,78,30.01,10.0,Variable,1.2,-,N/A,,Scattered Clouds,0,2013-10-16 16:48:00
12:58 PM,67.3,60.6,79,30.01,10.0,SE,4.6,-,N/A,,Scattered Clouds,130,2013-10-16 16:58:00
1:58 PM,65.7,60.4,83,29.99,10.0,East,5.8,-,N/A,,Clear,90,2013-10-16 17:58:00
2:58 PM,67.3,61.3,81,29.98,10.0,Variable,2.3,-,N/A,,Partly Cloudy,0,2013-10-16 18:58:00
3:58 PM,66.9,61.3,82,29.98,10.0,ESE,5.8,-,N/A,,Partly Cloudy,120,2013-10-16 19:58:00
4:58 PM,65.7,61.2,85,29.97,10.0,ESE,3.5,-,N/A,,Mostly Cloudy,110,2013-10-16 20:58:00
5:58 PM,63.7,61.0,91,29.95,10.0,ESE,4.6,-,N/A,,Scattered Clouds,110,2013-10-16 21:58:00
6:28 PM,62.6,60.8,94,29.95,2.5,ESE,3.5,-,N/A,,Overcast,120,2013-10-16 22:28:00
6:43 PM,62.6,62.6,100,29.95,3.0,SE,2.3,-,N/A,,Mostly Cloudy,130,2013-10-16 22:43:00
6:48 PM,62.6,62.6,100,29.95,3.0,ESE,3.5,-,N/A,,Mostly Cloudy,120,2013-10-16 22:48:00
6:58 PM,62.8,62.2,98,29.96,3.0,ESE,3.5,-,N/A,,Mostly Cloudy,120,2013-10-16 22:58:00
7:28 PM,62.6,62.6,100,29.95,3.0,SE,3.5,-,N/A,,Scattered Clouds,140,2013-10-16 23:28:00
8:03 PM,62.6,62.6,100,29.95,2.5,SSE,4.6,-,N/A,,Scattered Clouds,160,2013-10-17 00:03:00
10:56 PM,60.8,60.8,100,29.94,10.0,SSE,4.6,-,N/A,,Mostly Cloudy,150,2013-10-17 02:56:00
11:58 PM,60.4,60.3,99,29.94,10.0,South,4.6,-,N/A,,Scattered Clouds,180,2013-10-17 03:58:00